Location: Heidgraben
(53.7081°N, 9.6576°E)
Time: 10:47:35
(UTC+00:00)

ALOS 2 - Pass Details

Date: 05 July 2020
Orbit: 630 x 632 km, 97.9° (Epoch: 06 August)

Event Time Altitude Azimuth Distance (km) Brightness Sun altitude
Exits shadow 23:35:35 16° 218° (SW) 1,674 4.3 -13.6°
Maximum altitude 23:38:16 27° 267° (W) 1,222 4.0 -13.6°
Drops below altitude 10° 23:42:02 10° 325° (NW) 2,027 6.0 -13.6°
Sets 23:44:32 0° 338° (NNW) 2,940 7.3 -13.5°
